Location: ??
(31.9467°N, 34.8903°E)
Time: 23:18:26
(UTC+00:00)

X-37B - Pass Details

Date: 22 January 2021
Orbit: 383 x 391 km, 45.0° (Epoch: 10 February)

Event Time Altitude Azimuth Distance (km) Brightness Sun altitude
Rises 15:36:17 0° 277° (W) 2,265 5.8 -7.0°
Reaches altitude 10° 15:38:59 10° 302° (WNW) 1,415 4.0 -7.5°
Maximum altitude 15:40:56 15° 340° (NNW) 1,153 3.0 -7.9°
Drops below altitude 10° 15:42:53 10° 18° (NNE) 1,419 3.1 -8.3°
Enters shadow 15:43:59 - 31° (NNE) 1,727 3.4 -8.5°
